SCP
0 0 0 0 0 0 0 0 0 0 0 0 0 0 0 0 0 0 0 0 0 0 0 0 0 0 0 0 0 0 0 0 0 0 0 0 0 0 0 0 0 0 0 0
0 0 0 0 0 0 0 0 0 0 0 0 0 0 0 0 0 0 0 0 0 0 0 0 0 0 0 0 0 0 0 0 0 0 0 0 0 0 0 0 0 0 0 0
0 0 0 0 0 0 0 0 0 0 0 0 0 0 0 0 0 0 0 0 0 0 0 0 0 0 0 0 0 0 0 0 0 0 0 0 0 0 0 0 0 0 0 0
0 0 0 0 0 0 0 0 0 0 0 0 0 0 0 0 0 0 0 0 0 0 0 0 0 0 0 0 0 0 0 0 0 0 0 0 0 0 0 0 0 0 0 0
0 0 0 0 0 0 0 0 0 0 0 0 0 0 -0 -0 0 0 0 0 0 0 0 0 0 0 0 0 0 0 0 0 0 0 0 0 0 0 0 0 0 0 0 0
0 0 0 0 0 0 0 0 0 0 0 0 0 0 -0 0 0 0 0 0 0 0 0 0 0 0 0 0 0 0 0 0 0 0 0 0 0 0 0 0 0 0 0 0
0 0 0 0 0 0 0 0 0 0 0 0 0 0 0 0 0 0 0 0 0 0 0 0 0 0 0 0 0 0 0 0 0 0 0 0 0 0 0 0 0 0 0 0
0 0 0 0 0 0 0 0 0 0 0 0 0 0 0 0 0 0 -0 0 0 0 0 0 0 0 0 0 0 0 0 0 0 0 0 0 0 0 0 0 0 0 0 0
0 0 0 0 0 0 0 0 0 0 0 0 0 0 0 0 0 0 0 0 0 0 0 0 0 0 0 0 0 0 0 0 0 0 0 0 0 0 0 0 0 0 0 0
0 0 0 0 0 0 0 0 0 0 0 0 0 0 0 0 -0 -0 -0 0 0 0 0 0 0 0 0 0 0 0 0 0 0 0 0 0 0 0 0 0 0 0 0 0
0 0 0 0 0 0 0 0 0 0 0 0 0 0 0 0 0 0 0 0 0 0 0 0 0 0 0 0 0 0 0 0 0 0 0 0 0 0 0 0 0 0 0 0
0 0 0 0 0 0 0 0 0 0 0 0 0 0 0 -0 0 0 0 0 0 0 0 0 0 0 0 0 0 0 0 0 0 0 0 0 0 0 0 0 0 0 0 0
0 0 0 0 0 0 0 0 0 0 0 0 0 0 0 0 0 0 0 0 0 0 0 0 0 0 0 0 0 0 0 0 0 0 0 0 0 0 0 0 0 0 0 0
0 0 0 0 0 0 0 0 0 0 0 0 0 0 0 0 0 -0 -0 -0 0 0 0 0 0 0 0 0 0 0 0 0 0 0 0 0 0 0 0 0 0 0 0 0
-0 0 0 0 0 0 0 0 0 0 0 0 0 0 0 0 0 0 0 -0 -0 -0 -0 0 -0 0 0 0 0 0 0 0 0 0 0 0 0 0 0 0 0 0 0 0
-0 0 0 0 0 0 0 0 0 0 0 0 0 0 0 0 0 0 -0 -0 -0 -0 -0 0 0 0 0 0 0 0 0 0 0 0 0 0 0 0 0 0 0 0 0 0
-0 0 0 0 0 0 0 0 0 0 0 0 0 -0 0 0 0 0 0 0 0 0 0 0 0 0 0 0 0 0 0 0 0 0 0 0 0 0 0 0 0 0 0 0
-0 -0 0 0 0 0 0 -0 0 0 0 0 0 0 0 0 0 0 0 0 0 0 0 0 0 0 0 0 0 0 0 0 0 0 0 0 0 0 0 0 0 0 0 0
-0 -0 -0 0 0 0 0 0 0 0 0 0 0 0 0 0 0 0 0 0 0 0 0 0 0 0 0 0 0 0 0 0 0 0 0 0 0 0 0 0 0 0 0 0
0 0 0 0 0 0 0 0 0 0 0 0 0 0 0 0 0 0 0 0 0 0 0 0 0 0 0 0 0 0 0 0 0 0 0 0 0 0 0 0 0 0 0 0
-0 -0 0 0 0 0 0 0 0 0 -0 0 0 0 0 0 0 0 0 0 0 0 0 0 0 0 0 0 0 0 0 0 0 0 0 0 0 0 0 0 0 0 0 0
0 0 0 0 0 0 0 0 0 0 0 0 0 0 0 0 0 0 0 0 0 0 0 0 0 0 0 0 0 0 0 0 0 0 0 0 0 0 0 0 0 0 0 0
0 0 0 0 0 0 0 0 0 0 0 0 0 0 0 0 0 0 0 0 0 0 0 0 0 0 0 0 0 0 0 0 0 0 0 0 0 0 0 0 0 0 0 0
0 0 0 0 0 0 0 0 0 0 0 0 0 0 0 0 0 0 0 0 0 0 0 0 0 0 0 0 0 0 0 0 0 0 0 0 0 0 0 0 0 0 0 0
0 -0 0 0 -0 0 0 0 0 0 0 0 0 0 0 0 0 0 0 0 0 0 0 0 0 0 0 0 0 0 0 0 0 0 0 0 0 0 0 0 0 0 0 0
0 -0 0 0 0 0 0 0 0 0 0 0 0 0 0 0 0 0 0 0 0 0 0 0 0 0 0 0 0 0 0 0 0 0 0 0 0 0 0 0 0 0 0 0
Wind_Speed_500mb
9 7 17 24 30 2 4 8 10 5 8 6 14 21 34 41 29 43 59 59 60 62 71 64 63 65 67 69 71 78 83 83 82 85 83 84 85 76 71 64 57 51 47 46
3 28 21 15 13 15 12 9 12 11 13 7 15 30 25 22 20 43 60 65 76 71 67 58 60 59 67 72 74 80 84 87 86 83 83 82 84 82 75 70 66 59 54 50
15 9 15 26 13 20 24 35 14 15 6 10 7 33 15 22 34 54 67 73 76 74 81 75 61 57 65 73 78 82 84 87 87 84 80 84 80 82 83 80 73 71 63 58
16 20 15 11 18 24 32 20 18 13 8 12 5 21 20 15 18 17 43 58 78 75 79 76 76 72 68 70 74 82 85 83 86 88 87 88 88 90 91 76 73 72 68 63
24 15 17 26 21 24 16 18 23 16 15 4 15 6 11 12 27 22 26 63 76 71 79 81 82 79 72 69 78 80 85 85 87 90 91 88 89 88 82 74 69 67 64 67
18 6 16 20 14 29 7 6 6 6 8 9 33 20 38 20 21 17 19 59 66 66 73 72 74 73 72 66 71 79 80 83 87 89 91 92 91 90 86 77 72 70 65 65
22 33 5 9 9 7 15 12 3 1 6 19 10 21 42 14 11 15 19 49 65 67 54 61 66 69 74 75 70 76 81 81 86 91 93 93 91 88 81 76 74 70 67 68
25 20 34 24 37 15 33 28 11 15 10 9 11 16 21 26 34 42 50 65 64 48 38 44 46 62 70 71 74 77 81 81 83 89 90 90 88 86 80 77 73 66 65 58
14 16 4 14 16 31 15 18 30 5 2 2 11 15 14 16 21 18 39 42 56 59 58 56 41 48 54 64 76 85 86 86 87 84 84 87 86 86 81 75 68 65 60 54
11 5 10 4 12 13 22 14 13 9 6 9 10 10 12 5 24 24 21 19 40 40 37 40 51 50 48 49 58 69 79 86 87 82 79 82 83 82 77 72 67 63 57 55
6 9 2 9 16 30 13 14 12 12 10 12 14 18 16 29 25 17 12 23 28 28 28 29 31 36 41 47 51 58 66 76 82 80 76 77 80 81 76 68 63 59 55 54
43 9 10 18 7 6 27 41 30 13 15 24 9 25 8 12 6 6 15 17 14 17 11 20 22 21 22 33 44 52 58 67 72 72 73 70 72 75 74 70 62 56 55 56
5 15 1 11 6 2 13 26 32 36 5 27 18 27 11 12 10 12 16 7 7 8 9 18 23 25 24 23 34 43 49 55 59 65 69 70 69 71 71 67 60 57 56 55
37 14 33 32 32 15 14 18 34 21 22 43 35 35 23 11 14 8 20 13 10 11 12 18 25 28 28 28 30 33 44 51 55 59 64 67 67 66 65 62 60 59 57 56
8 16 29 42 11 13 19 31 27 40 51 29 61 47 39 19 21 17 21 21 22 29 34 31 28 27 30 32 34 37 40 46 53 59 63 64 62 61 61 61 60 59 58 53
11 23 23 19 20 18 13 16 29 41 48 40 58 47 20 20 32 30 46 22 32 39 49 43 34 33 32 33 33 37 41 46 51 56 60 61 61 62 62 60 59 57 55 54
12 9 2 18 10 15 7 41 17 20 26 28 39 72 14 26 27 26 47 56 53 46 42 41 40 36 34 32 31 33 37 43 49 53 56 59 62 62 60 57 55 54 54 53
15 11 7 13 6 15 18 27 44 39 34 36 42 56 15 25 47 57 68 71 67 51 46 41 37 39 34 31 32 32 38 41 46 51 56 60 61 60 59 56 54 53 52 51
31 20 8 10 20 6 5 12 16 19 41 38 46 51 16 19 22 50 68 72 72 67 67 64 34 34 36 30 28 33 42 43 45 50 55 57 58 59 58 57 56 54 54 53
44 39 17 12 12 22 38 12 18 12 31 38 35 50 33 23 19 38 45 53 53 63 63 53 42 41 40 34 30 36 43 47 49 51 53 55 56 56 58 58 59 58 54 52
15 20 32 31 17 13 13 20 33 13 27 14 40 50 33 29 56 74 55 57 53 46 52 54 48 48 42 41 40 42 44 48 50 51 51 54 56 55 56 58 57 57 55 52
21 11 18 19 27 18 20 20 37 38 4 20 7 31 45 74 88 65 65 64 52 45 43 48 52 53 51 50 50 50 51 52 54 58 59 57 56 58 58 57 57 55 53 52
15 18 9 15 14 10 49 25 56 23 36 21 17 21 26 52 62 58 54 59 55 53 50 46 54 60 59 57 57 58 59 61 62 64 63 62 59 57 56 57 57 56 51 49
13 5 14 9 35 22 39 41 69 72 42 37 25 19 14 10 10 20 27 35 42 45 42 44 52 62 66 64 63 58 65 67 65 63 63 63 62 60 56 53 50 49 50 51
16 7 7 15 23 5 24 62 70 59 57 36 26 25 27 23 16 12 14 20 28 39 46 50 56 65 71 70 70 68 70 69 68 65 66 65 63 61 58 52 47 48 45 43
11 27 20 29 33 20 19 64 62 62 54 56 41 36 35 33 31 27 28 25 27 36 46 54 62 68 76 77 77 79 77 77 74 72 70 70 69 64 58 57 55 45 39 40
Wind_Direction_500mb
200 185 201 201 212 297 180 217 232 248 276 256 240 250 260 260 236 243 254 252 250 251 256 253 249 246 241 235 227 222 223 223 220 220 219 220 225 226 229 231 235 237 238 233
136 234 215 211 209 227 248 247 244 274 270 212 278 265 252 254 238 238 245 252 253 256 255 255 246 243 240 238 230 224 225 225 223 222 222 221 222 225 229 232 232 235 236 233
200 214 200 193 191 212 230 236 229 225 315 261 311 280 238 257 231 243 247 253 257 253 253 252 245 244 242 236 231 229 226 225 224 224 222 224 227 231 228 226 228 229 232 231
229 231 205 186 221 198 242 199 205 205 177 248 140 279 234 246 239 231 245 246 249 249 251 251 250 242 243 243 238 232 229 227 227 225 224 225 227 227 231 231 231 228 228 231
226 174 193 218 217 172 237 173 192 188 210 2 232 277 274 220 254 241 238 246 251 250 249 246 247 246 245 246 237 234 230 228 228 227 227 229 230 234 238 235 232 230 230 231
239 210 175 205 188 193 183 96 88 97 129 222 238 188 275 233 237 237 231 246 254 253 250 247 246 247 243 241 236 234 233 231 229 228 228 230 230 232 233 232 230 229 229 229
225 233 202 177 156 141 176 140 213 270 187 233 171 169 241 236 250 232 246 254 256 255 256 248 243 242 238 238 237 233 232 230 230 230 228 229 231 233 235 235 233 228 227 228
202 249 190 196 207 172 195 191 185 203 201 223 140 214 241 221 246 252 260 259 260 259 257 247 243 242 244 243 240 235 234 231 231 232 230 229 230 232 233 234 235 233 232 233
177 249 160 201 180 167 195 198 214 318 339 191 207 275 289 254 261 261 251 255 257 260 255 254 251 244 241 241 240 238 235 233 233 232 229 229 228 229 230 232 233 233 232 231
225 268 209 201 129 224 186 158 196 216 225 246 260 267 236 259 240 255 264 255 269 268 261 257 243 241 247 247 242 238 236 235 235 231 228 229 228 228 228 229 230 230 229 227
198 181 269 132 203 180 165 204 207 185 178 213 249 253 209 219 228 243 262 275 282 290 256 248 244 246 250 241 235 232 231 229 229 230 225 226 226 226 227 228 227 226 225 222
207 183 192 202 241 225 220 207 199 194 219 227 224 243 251 219 244 256 271 307 319 302 259 237 241 239 243 239 232 229 226 224 225 225 222 224 225 224 224 224 223 221 220 219
246 211 150 340 348 180 208 215 213 228 11 221 216 250 263 251 250 256 252 329 336 331 251 238 243 245 240 237 232 226 223 221 222 221 219 220 222 221 221 222 220 218 218 218
312 244 203 215 220 140 205 198 211 207 232 241 238 244 263 277 269 248 276 274 275 302 287 261 250 249 246 240 236 230 224 220 219 218 218 218 217 216 216 217 216 216 216 217
191 272 225 225 200 184 203 212 199 209 226 219 243 240 246 233 255 278 266 276 278 301 295 275 272 262 253 247 240 235 227 222 217 215 214 215 213 210 209 210 211 212 213 214
233 241 232 234 198 196 224 214 211 213 226 237 250 260 237 249 244 266 274 260 276 289 295 285 276 266 259 251 242 235 229 223 215 212 210 207 205 203 203 204 205 207 207 208
222 329 328 226 193 161 298 228 211 217 221 220 238 245 133 228 231 237 258 269 273 279 285 288 280 267 260 250 242 232 225 216 209 205 202 200 198 198 197 198 200 202 204 206
246 221 251 238 109 197 242 173 208 216 228 220 244 256 188 230 245 250 253 256 261 264 270 281 287 259 247 237 231 215 209 203 197 194 194 192 191 192 191 193 195 197 198 198
211 231 262 256 203 276 171 201 163 181 246 230 234 253 209 218 258 260 250 252 258 261 266 273 272 250 236 222 219 204 200 193 185 186 187 187 187 188 189 186 187 188 187 184
208 213 200 249 224 202 231 186 144 108 265 236 231 246 232 161 230 249 247 256 262 259 252 254 244 226 219 210 208 196 195 190 184 185 182 185 181 183 181 180 178 177 180 179
187 200 214 225 243 271 200 166 141 147 254 214 224 230 218 208 230 251 252 254 258 262 250 240 223 217 215 206 200 189 188 185 174 174 173 178 172 174 175 173 175 175 174 175
211 183 222 220 212 251 171 126 169 217 185 207 237 228 206 221 239 242 245 241 237 244 245 233 221 211 205 203 197 188 183 178 172 168 168 169 171 171 173 175 172 174 175 174
238 204 195 211 213 242 171 192 210 206 219 221 211 224 228 237 245 253 254 242 237 235 235 227 218 206 201 200 197 190 182 179 175 170 169 170 171 174 174 176 175 174 177 179
237 174 217 167 235 214 196 205 210 216 211 216 205 228 201 167 224 233 239 237 232 234 234 224 212 205 200 197 194 194 185 179 178 174 173 173 173 174 176 178 181 180 181 183
269 133 157 260 284 168 208 209 215 221 218 226 218 216 206 201 205 222 236 233 230 231 226 221 214 207 202 195 191 187 188 183 181 179 177 177 178 178 177 180 185 187 188 191
203 246 210 224 219 208 211 211 215 216 211 215 213 228 231 236 255 262 256 250 245 239 229 220 215 210 204 198 193 190 191 188 185 183 182 181 180 180 181 183 178 180 188 186
Wind_Speed_850mb
9 7 17 24 30 2 4 8 10 5 8 6 14 21 34 41 29 43 59 59 60 62 71 64 63 65 67 69 71 78 83 83 82 85 83 84 85 76 71 64 57 51 47 46
3 28 21 15 13 15 12 9 12 11 13 7 15 30 25 22 20 43 60 65 76 71 67 58 60 59 67 72 74 80 84 87 86 83 83 82 84 82 75 70 66 59 54 50
15 9 15 26 13 20 24 35 14 15 6 10 7 33 15 22 34 54 67 73 76 74 81 75 61 57 65 73 78 82 84 87 87 84 80 84 80 82 83 80 73 71 63 58
16 20 15 11 18 24 32 20 18 13 8 12 5 21 20 15 18 17 43 58 78 75 79 76 76 72 68 70 74 82 85 83 86 88 87 88 88 90 91 76 73 72 68 63
24 15 17 26 21 24 16 18 23 16 15 4 15 6 11 12 27 22 26 63 76 71 79 81 82 79 72 69 78 80 85 85 87 90 91 88 89 88 82 74 69 67 64 67
18 6 16 20 14 29 7 6 6 6 8 9 33 20 38 20 21 17 19 59 66 66 73 72 74 73 72 66 71 79 80 83 87 89 91 92 91 90 86 77 72 70 65 65
22 33 5 9 9 7 15 12 3 1 6 19 10 21 42 14 11 15 19 49 65 67 54 61 66 69 74 75 70 76 81 81 86 91 93 93 91 88 81 76 74 70 67 68
25 20 34 24 37 15 33 28 11 15 10 9 11 16 21 26 34 42 50 65 64 48 38 44 46 62 70 71 74 77 81 81 83 89 90 90 88 86 80 77 73 66 65 58
14 16 4 14 16 31 15 18 30 5 2 2 11 15 14 16 21 18 39 42 56 59 58 56 41 48 54 64 76 85 86 86 87 84 84 87 86 86 81 75 68 65 60 54
11 5 10 4 12 13 22 14 13 9 6 9 10 10 12 5 24 24 21 19 40 40 37 40 51 50 48 49 58 69 79 86 87 82 79 82 83 82 77 72 67 63 57 55
6 9 2 9 16 30 13 14 12 12 10 12 14 18 16 29 25 17 12 23 28 28 28 29 31 36 41 47 51 58 66 76 82 80 76 77 80 81 76 68 63 59 55 54
43 9 10 18 7 6 27 41 30 13 15 24 9 25 8 12 6 6 15 17 14 17 11 20 22 21 22 33 44 52 58 67 72 72 73 70 72 75 74 70 62 56 55 56
5 15 1 11 6 2 13 26 32 36 5 27 18 27 11 12 10 12 16 7 7 8 9 18 23 25 24 23 34 43 49 55 59 65 69 70 69 71 71 67 60 57 56 55
37 14 33 32 32 15 14 18 34 21 22 43 35 35 23 11 14 8 20 13 10 11 12 18 25 28 28 28 30 33 44 51 55 59 64 67 67 66 65 62 60 59 57 56
8 16 29 42 11 13 19 31 27 40 51 29 61 47 39 19 21 17 21 21 22 29 34 31 28 27 30 32 34 37 40 46 53 59 63 64 62 61 61 61 60 59 58 53
11 23 23 19 20 18 13 16 29 41 48 40 58 47 20 20 32 30 46 22 32 39 49 43 34 33 32 33 33 37 41 46 51 56 60 61 61 62 62 60 59 57 55 54
12 9 2 18 10 15 7 41 17 20 26 28 39 72 14 26 27 26 47 56 53 46 42 41 40 36 34 32 31 33 37 43 49 53 56 59 62 62 60 57 55 54 54 53
15 11 7 13 6 15 18 27 44 39 34 36 42 56 15 25 47 57 68 71 67 51 46 41 37 39 34 31 32 32 38 41 46 51 56 60 61 60 59 56 54 53 52 51
31 20 8 10 20 6 5 12 16 19 41 38 46 51 16 19 22 50 68 72 72 67 67 64 34 34 36 30 28 33 42 43 45 50 55 57 58 59 58 57 56 54 54 53
44 39 17 12 12 22 38 12 18 12 31 38 35 50 33 23 19 38 45 53 53 63 63 53 42 41 40 34 30 36 43 47 49 51 53 55 56 56 58 58 59 58 54 52
15 20 32 31 17 13 13 20 33 13 27 14 40 50 33 29 56 74 55 57 53 46 52 54 48 48 42 41 40 42 44 48 50 51 51 54 56 55 56 58 57 57 55 52
21 11 18 19 27 18 20 20 37 38 4 20 7 31 45 74 88 65 65 64 52 45 43 48 52 53 51 50 50 50 51 52 54 58 59 57 56 58 58 57 57 55 53 52
15 18 9 15 14 10 49 25 56 23 36 21 17 21 26 52 62 58 54 59 55 53 50 46 54 60 59 57 57 58 59 61 62 64 63 62 59 57 56 57 57 56 51 49
13 5 14 9 35 22 39 41 69 72 42 37 25 19 14 10 10 20 27 35 42 45 42 44 52 62 66 64 63 58 65 67 65 63 63 63 62 60 56 53 50 49 50 51
16 7 7 15 23 5 24 62 70 59 57 36 26 25 27 23 16 12 14 20 28 39 46 50 56 65 71 70 70 68 70 69 68 65 66 65 63 61 58 52 47 48 45 43
11 27 20 29 33 20 19 64 62 62 54 56 41 36 35 33 31 27 28 25 27 36 46 54 62 68 76 77 77 79 77 77 74 72 70 70 69 64 58 57 55 45 39 40
Wind_Direction_850mb
200 185 201 201 212 297 180 217 232 248 276 256 240 250 260 260 236 243 254 252 250 251 256 253 249 246 241 235 227 222 223 223 220 220 219 220 225 226 229 231 235 237 238 233
136 234 215 211 209 227 248 247 244 274 270 212 278 265 252 254 238 238 245 252 253 256 255 255 246 243 240 238 230 224 225 225 223 222 222 221 222 225 229 232 232 235 236 233
200 214 200 193 191 212 230 236 229 225 315 261 311 280 238 257 231 243 247 253 257 253 253 252 245 244 242 236 231 229 226 225 224 224 222 224 227 231 228 226 228 229 232 231
229 231 205 186 221 198 242 199 205 205 177 248 140 279 234 246 239 231 245 246 249 249 251 251 250 242 243 243 238 232 229 227 227 225 224 225 227 227 231 231 231 228 228 231
226 174 193 218 217 172 237 173 192 188 210 2 232 277 274 220 254 241 238 246 251 250 249 246 247 246 245 246 237 234 230 228 228 227 227 229 230 234 238 235 232 230 230 231
239 210 175 205 188 193 183 96 88 97 129 222 238 188 275 233 237 237 231 246 254 253 250 247 246 247 243 241 236 234 233 231 229 228 228 230 230 232 233 232 230 229 229 229
225 233 202 177 156 141 176 140 213 270 187 233 171 169 241 236 250 232 246 254 256 255 256 248 243 242 238 238 237 233 232 230 230 230 228 229 231 233 235 235 233 228 227 228
202 249 190 196 207 172 195 191 185 203 201 223 140 214 241 221 246 252 260 259 260 259 257 247 243 242 244 243 240 235 234 231 231 232 230 229 230 232 233 234 235 233 232 233
177 249 160 201 180 167 195 198 214 318 339 191 207 275 289 254 261 261 251 255 257 260 255 254 251 244 241 241 240 238 235 233 233 232 229 229 228 229 230 232 233 233 232 231
225 268 209 201 129 224 186 158 196 216 225 246 260 267 236 259 240 255 264 255 269 268 261 257 243 241 247 247 242 238 236 235 235 231 228 229 228 228 228 229 230 230 229 227
198 181 269 132 203 180 165 204 207 185 178 213 249 253 209 219 228 243 262 275 282 290 256 248 244 246 250 241 235 232 231 229 229 230 225 226 226 226 227 228 227 226 225 222
207 183 192 202 241 225 220 207 199 194 219 227 224 243 251 219 244 256 271 307 319 302 259 237 241 239 243 239 232 229 226 224 225 225 222 224 225 224 224 224 223 221 220 219
246 211 150 340 348 180 208 215 213 228 11 221 216 250 263 251 250 256 252 329 336 331 251 238 243 245 240 237 232 226 223 221 222 221 219 220 222 221 221 222 220 218 218 218
312 244 203 215 220 140 205 198 211 207 232 241 238 244 263 277 269 248 276 274 275 302 287 261 250 249 246 240 236 230 224 220 219 218 218 218 217 216 216 217 216 216 216 217
191 272 225 225 200 184 203 212 199 209 226 219 243 240 246 233 255 278 266 276 278 301 295 275 272 262 253 247 240 235 227 222 217 215 214 215 213 210 209 210 211 212 213 214
233 241 232 234 198 196 224 214 211 213 226 237 250 260 237 249 244 266 274 260 276 289 295 285 276 266 259 251 242 235 229 223 215 212 210 207 205 203 203 204 205 207 207 208
222 329 328 226 193 161 298 228 211 217 221 220 238 245 133 228 231 237 258 269 273 279 285 288 280 267 260 250 242 232 225 216 209 205 202 200 198 198 197 198 200 202 204 206
246 221 251 238 109 197 242 173 208 216 228 220 244 256 188 230 245 250 253 256 261 264 270 281 287 259 247 237 231 215 209 203 197 194 194 192 191 192 191 193 195 197 198 198
211 231 262 256 203 276 171 201 163 181 246 230 234 253 209 218 258 260 250 252 258 261 266 273 272 250 236 222 219 204 200 193 185 186 187 187 187 188 189 186 187 188 187 184
208 213 200 249 224 202 231 186 144 108 265 236 231 246 232 161 230 249 247 256 262 259 252 254 244 226 219 210 208 196 195 190 184 185 182 185 181 183 181 180 178 177 180 179
187 200 214 225 243 271 200 166 141 147 254 214 224 230 218 208 230 251 252 254 258 262 250 240 223 217 215 206 200 189 188 185 174 174 173 178 172 174 175 173 175 175 174 175
211 183 222 220 212 251 171 126 169 217 185 207 237 228 206 221 239 242 245 241 237 244 245 233 221 211 205 203 197 188 183 178 172 168 168 169 171 171 173 175 172 174 175 174
238 204 195 211 213 242 171 192 210 206 219 221 211 224 228 237 245 253 254 242 237 235 235 227 218 206 201 200 197 190 182 179 175 170 169 170 171 174 174 176 175 174 177 179
237 174 217 167 235 214 196 205 210 216 211 216 205 228 201 167 224 233 239 237 232 234 234 224 212 205 200 197 194 194 185 179 178 174 173 173 173 174 176 178 181 180 181 183
269 133 157 260 284 168 208 209 215 221 218 226 218 216 206 201 205 222 236 233 230 231 226 221 214 207 202 195 191 187 188 183 181 179 177 177 178 178 177 180 185 187 188 191
203 246 210 224 219 208 211 211 215 216 211 215 213 228 231 236 255 262 256 250 245 239 229 220 215 210 204 198 193 190 191 188 185 183 182 181 180 180 181 183 178 180 188 186